Weather History for Murray, KY

Change the Weather History Date:

Wednesday, October 19, 2011

  Actual Average (KPAH) Record (KPAH)
Temperature  
Mean Temperature 44 °F 58 °F  
Max Temperature 46 °F 70 °F 90 °F (1938)
Min Temperature 42 °F 46 °F 32 °F (1990)
Degree Days  
Heating Degree Days 21 8  
Month to date heating degree days 113  
Since 1 July heating degree days 152  
Cooling Degree Days 0 1  
Month to date cooling degree days 30  
Year to date cooling degree days 1530  
Moisture  
Dew Point 41 °F    
Average Humidity 86    
Maximum Humidity 93    
Minimum Humidity 81    
Precipitation  
Precipitation 0.05 in 0.13 in 1.00 in (1994)
Month to date precipitation 2.48  
Year to date precipitation 38.71  
Snow  
Snow 0.00 in 0.00 in T in (1989)
Month to date snowfall 0.0  
Since 1 July snowfall 0.0  
Since 1 September snowfall 0.0  
Snow Depth -    
Sea Level Pressure  
Sea Level Pressure 29.69 in    
Wind  
Wind Speed 11 mph (WNW)    
Max Wind Speed 20 mph    
Max Gust Speed 25 mph    
Visibility 9 miles    
Events      
T = Trace of Precipitation, MM = Missing Value Source: NWS Daily Summary

Daily Weather History Graph

Daily Weather History Graph

Search for Another Location

Airport:

Trip Planner

Search our weather history database for the weather conditions in past years. The results will help you decide how hot, cold, wet, or windy it might be!

Date:

Astronomy

Oct. 19, 2011 Rise Set
Actual Time 7:04 AM CDT 6:12 PM CDT
Civil Twilight 6:38 AM CDT 6:38 PM CDT
Nautical Twilight 6:08 AM CDT 7:08 PM CDT
Astronomical Twilight 5:38 AM CDT 7:38 PM CDT
Moon No Moon Rise 1:30 PM CDT (10/19)
Length of Visible Light 12h 00m
Length of Day
11h 07m
Waning Gibbous, 54% of the Moon is Illuminated
Oct 19
Waning Gibbous
Oct 19
Last Quarter
Oct 26
New
Nov 2
First Quarter
Nov 10
Full

Hourly Weather History & Observations

Time (CDT) Temp. Windchill Dew Point Humidity Pressure Visibility Wind Dir Wind Speed Gust Speed Precip Events Conditions
12:15 AM 44.6 °F 39.7 °F 41.0 °F 87% 29.74 in 10.0 mi WNW 9.2 mph - N/A   Unknown
12:35 AM 44.6 °F 41.4 °F 41.0 °F 87% 29.73 in 10.0 mi WNW 5.8 mph - N/A   Unknown
12:55 AM 44.6 °F 41.4 °F 41.0 °F 87% 29.73 in 10.0 mi WNW 5.8 mph - N/A   Unknown
1:15 AM 44.6 °F 40.2 °F 41.0 °F 87% 29.73 in 10.0 mi WNW 8.1 mph - N/A   Unknown
1:35 AM 44.6 °F 41.4 °F 41.0 °F 87% 29.72 in 9.0 mi WNW 5.8 mph - N/A   Unknown
1:55 AM 44.6 °F 40.7 °F 42.8 °F 93% 29.71 in 9.0 mi West 6.9 mph - N/A   Unknown
2:15 AM 44.6 °F 40.7 °F 42.8 °F 93% 29.70 in 9.0 mi West 6.9 mph - N/A   Unknown
2:35 AM 44.6 °F 40.2 °F 41.0 °F 87% 29.69 in 10.0 mi WNW 8.1 mph - N/A   Unknown
2:55 AM 44.6 °F 40.7 °F 41.0 °F 87% 29.69 in 10.0 mi WNW 6.9 mph - N/A   Unknown
3:15 AM 44.6 °F 39.7 °F 41.0 °F 87% 29.68 in 10.0 mi WNW 9.2 mph - N/A   Unknown
3:35 AM 44.6 °F 40.2 °F 41.0 °F 87% 29.68 in 10.0 mi WNW 8.1 mph - N/A   Unknown
3:55 AM 44.6 °F 39.7 °F 41.0 °F 87% 29.68 in 10.0 mi WNW 9.2 mph - N/A   Unknown
4:15 AM 44.6 °F 39.7 °F 41.0 °F 87% 29.68 in 10.0 mi WNW 9.2 mph - N/A   Unknown
4:55 AM 44.6 °F 39.2 °F 41.0 °F 87% 29.67 in 10.0 mi WNW 10.4 mph - N/A   Unknown
5:15 AM 44.6 °F 39.7 °F 41.0 °F 87% 29.67 in 10.0 mi West 9.2 mph - N/A   Unknown
5:55 AM 44.6 °F 38.8 °F 39.2 °F 81% 29.67 in 10.0 mi WNW 11.5 mph - N/A   Unknown
6:15 AM 44.6 °F 39.7 °F 39.2 °F 81% 29.67 in 10.0 mi WNW 9.2 mph - N/A   Unknown
6:35 AM 44.6 °F 39.2 °F 39.2 °F 81% 29.66 in 10.0 mi WNW 10.4 mph - N/A   Unknown
6:55 AM 44.6 °F 38.8 °F 39.2 °F 81% 29.66 in 10.0 mi WNW 11.5 mph 18.4 mph N/A   Unknown
7:15 AM 44.6 °F 38.8 °F 39.2 °F 81% 29.66 in 10.0 mi West 11.5 mph 18.4 mph N/A   Unknown
7:35 AM 44.6 °F 38.4 °F 39.2 °F 81% 29.66 in 10.0 mi West 12.7 mph 20.7 mph N/A   Unknown
7:55 AM 42.8 °F 37.0 °F 41.0 °F 93% 29.67 in 5.0 mi West 10.4 mph 18.4 mph N/A   Unknown
8:15 AM 42.8 °F 36.2 °F 41.0 °F 93% 29.67 in 4.0 mi West 12.7 mph 20.7 mph N/A   Unknown
8:35 AM 42.8 °F 36.6 °F 41.0 °F 93% 29.67 in 3.0 mi West 11.5 mph 20.7 mph N/A   Unknown
8:55 AM 42.8 °F 35.4 °F 41.0 °F 93% 29.67 in 3.0 mi WNW 15.0 mph 19.6 mph N/A   Unknown
9:15 AM 42.8 °F 36.6 °F 41.0 °F 93% 29.67 in 4.0 mi WNW 11.5 mph 17.3 mph N/A   Unknown
9:35 AM 42.8 °F 35.8 °F 41.0 °F 93% 29.67 in 4.0 mi WNW 13.8 mph 20.7 mph N/A   Unknown
9:55 AM 44.6 °F 38.1 °F 41.0 °F 87% 29.67 in 4.0 mi WNW 13.8 mph 17.3 mph N/A   Unknown
10:15 AM 44.6 °F 38.4 °F 41.0 °F 87% 29.67 in 8.0 mi WNW 12.7 mph 18.4 mph N/A   Unknown
10:35 AM 44.6 °F 37.4 °F 41.0 °F 87% 29.67 in 10.0 mi WNW 16.1 mph 23.0 mph N/A   Unknown
10:55 AM 44.6 °F 37.8 °F 41.0 °F 87% 29.67 in 10.0 mi WNW 15.0 mph 21.9 mph N/A   Unknown
11:15 AM 44.6 °F 38.4 °F 41.0 °F 87% 29.67 in 10.0 mi WNW 12.7 mph 20.7 mph N/A   Unknown
11:55 AM 44.6 °F 37.8 °F 41.0 °F 87% 29.68 in 7.0 mi WNW 15.0 mph 23.0 mph N/A   Unknown
12:15 PM 44.6 °F 38.1 °F 41.0 °F 87% 29.68 in 10.0 mi WNW 13.8 mph 25.3 mph 0.01 in   Unknown
12:35 PM 44.6 °F 37.8 °F 41.0 °F 87% 29.67 in 10.0 mi WNW 15.0 mph 21.9 mph 0.01 in   Unknown
12:55 PM 46.4 °F 40.1 °F 42.8 °F 87% 29.66 in 10.0 mi WNW 15.0 mph 21.9 mph 0.01 in   Unknown
1:15 PM 46.4 °F 39.5 °F 41.0 °F 81% 29.66 in 10.0 mi WNW 17.3 mph 23.0 mph N/A   Unknown
1:35 PM 46.4 °F 40.1 °F 41.0 °F 81% 29.66 in 10.0 mi WNW 15.0 mph 23.0 mph N/A   Unknown
1:55 PM 46.4 °F 39.0 °F 41.0 °F 81% 29.66 in 9.0 mi West 19.6 mph 25.3 mph N/A   Unknown
2:15 PM 46.4 °F 39.5 °F 41.0 °F 81% 29.66 in 9.0 mi WNW 17.3 mph 24.2 mph N/A   Unknown
2:35 PM 46.4 °F 39.5 °F 41.0 °F 81% 29.66 in 9.0 mi West 17.3 mph 25.3 mph N/A   Unknown
3:15 PM 46.4 °F 39.8 °F 41.0 °F 81% 29.67 in 10.0 mi West 16.1 mph 25.3 mph N/A   Unknown
3:35 PM 46.4 °F 39.2 °F 41.0 °F 81% 29.68 in 10.0 mi West 18.4 mph 24.2 mph N/A   Unknown
3:55 PM 46.4 °F 40.1 °F 41.0 °F 81% 29.69 in 9.0 mi WNW 15.0 mph 20.7 mph N/A   Unknown
4:15 PM 46.4 °F 39.8 °F 41.0 °F 81% 29.70 in 8.0 mi WNW 16.1 mph 23.0 mph N/A   Unknown
4:35 PM 46.4 °F 40.7 °F 41.0 °F 81% 29.70 in 9.0 mi West 12.7 mph 20.7 mph N/A   Unknown
4:55 PM 46.4 °F 40.1 °F 42.8 °F 87% 29.71 in 8.0 mi West 15.0 mph 23.0 mph 0.01 in   Unknown
5:15 PM 44.6 °F 38.1 °F 42.8 °F 93% 29.72 in 5.0 mi West 13.8 mph 19.6 mph 0.01 in   Unknown
5:35 PM 44.6 °F 39.7 °F 42.8 °F 93% 29.73 in 5.0 mi NW 9.2 mph - 0.01 in   Unknown
5:55 PM 44.6 °F 37.8 °F 41.0 °F 87% 29.74 in 8.0 mi WNW 15.0 mph 19.6 mph 0.02 in   Unknown
6:15 PM 44.6 °F 37.4 °F 41.0 °F 87% 29.74 in 10.0 mi West 16.1 mph 19.6 mph 0.01 in   Unknown
6:35 PM 44.6 °F 38.4 °F 41.0 °F 87% 29.75 in 10.0 mi West 12.7 mph 18.4 mph 0.01 in   Unknown
6:55 PM 44.6 °F 37.8 °F 41.0 °F 87% 29.75 in 10.0 mi West 15.0 mph 23.0 mph 0.01 in   Unknown
7:15 PM 44.6 °F 38.4 °F 41.0 °F 87% 29.76 in 10.0 mi West 12.7 mph - N/A   Unknown
7:35 PM 44.6 °F 37.4 °F 41.0 °F 87% 29.76 in 5.0 mi WNW 16.1 mph 21.9 mph 0.01 in   Unknown
7:55 PM 44.6 °F 37.8 °F 39.2 °F 81% 29.76 in 10.0 mi West 15.0 mph 28.8 mph 0.02 in   Unknown
8:15 PM 44.6 °F 38.4 °F 39.2 °F 81% 29.77 in 10.0 mi West 12.7 mph 20.7 mph N/A   Unknown
8:35 PM 44.6 °F 38.8 °F 39.2 °F 81% 29.77 in 10.0 mi West 11.5 mph - N/A   Unknown
8:55 PM 44.6 °F 39.2 °F 41.0 °F 87% 29.77 in 10.0 mi West 10.4 mph 18.4 mph N/A   Unknown
9:35 PM 44.6 °F 37.8 °F 41.0 °F 87% 29.77 in 10.0 mi West 15.0 mph - N/A   Unknown
9:55 PM 44.6 °F 38.8 °F 39.2 °F 81% 29.77 in 10.0 mi West 11.5 mph 19.6 mph N/A   Unknown
10:15 PM 44.6 °F 37.8 °F 39.2 °F 81% 29.77 in 10.0 mi West 15.0 mph 20.7 mph N/A   Unknown
10:35 PM 44.6 °F 37.8 °F 39.2 °F 81% 29.76 in 10.0 mi West 15.0 mph 19.6 mph N/A   Unknown
10:55 PM 44.6 °F 38.8 °F 39.2 °F 81% 29.76 in 10.0 mi West 11.5 mph 23.0 mph N/A   Unknown
11:15 PM 42.8 °F 35.4 °F 39.2 °F 87% 29.76 in 10.0 mi West 15.0 mph 19.6 mph N/A   Unknown
11:35 PM 42.8 °F 36.2 °F 39.2 °F 87% 29.76 in 10.0 mi WSW 12.7 mph 19.6 mph N/A   Unknown
11:55 PM 42.8 °F 35.8 °F 39.2 °F 87% 29.76 in 10.0 mi West 13.8 mph 19.6 mph N/A   Unknown